| time (UTC) | temp C | wind direction | speed KPH | gust KPH | rain 1hr cm | rain 24hr cm | rain mn cm | humidity % | barometer mb |
| 20260831033332 | 38 | 312 | 1.6 | 11.3 | 0.00 | 0.00 | 0.00 | 29 | 1006.7 |
| 20260831032358 | 38 | 279 | 3.2 | 8.0 | 0.00 | 0.00 | 0.00 | 29 | 1006.8 |
| 20260831031347 | 38 | 316 | 1.6 | 4.8 | 0.00 | 0.00 | 0.00 | 29 | 1006.7 |
| 20260831030334 | 38 | 284 | 1.6 | 6.4 | 0.00 | 0.00 | 0.00 | 29 | 1006.5 |
| 20260831025341 | 38 | 258 | 4.8 | 12.9 | 0.00 | 0.00 | 0.00 | 29 | 1006.5 |
| 20260831024329 | 38 | 260 | 3.2 | 8.0 | 0.00 | 0.00 | 0.00 | 30 | 1006.4 |
| 20260831023340 | 38 | 278 | 3.2 | 6.4 | 0.00 | 0.00 | 0.00 | 30 | 1006.2 |
| 20260831022406 | 38 | 303 | 4.8 | 16.1 | 0.00 | 0.00 | 0.00 | 30 | 1006.1 |
| 20260831021331 | 38 | 300 | 1.6 | 8.0 | 0.00 | 0.00 | 0.00 | 30 | 1005.9 |
| 20260831020337 | 38 | 319 | 4.8 | 8.0 | 0.00 | 0.00 | 0.00 | 30 | 1005.8 |
| 20260831015348 | 38 | 313 | 3.2 | 12.9 | 0.00 | 0.00 | 0.00 | 30 | 1005.5 |
| 20260831014333 | 39 | 284 | 3.2 | 9.7 | 0.00 | 0.00 | 0.00 | 29 | 1005.4 |
| 20260831013340 | 39 | 324 | 1.6 | 11.3 | 0.00 | 0.00 | 0.00 | 29 | 1005.3 |
| 20260831012327 | 40 | 302 | 4.8 | 8.0 | 0.00 | 0.00 | 0.00 | 28 | 1005.3 |
| 20260831011339 | 40 | 303 | 4.8 | 12.9 | 0.00 | 0.00 | 0.00 | 28 | 1005.4 |
| 20260831010344 | 40 | 297 | 6.4 | 12.9 | 0.00 | 0.00 | 0.00 | 27 | 1005.4 |
| 20260831005350 | 40 | 11 | 3.2 | 8.0 | 0.00 | 0.00 | 0.00 | 28 | 1005.5 |
| 20260831004336 | 40 | 328 | 4.8 | 12.9 | 0.00 | 0.00 | 0.00 | 28 | 1005.5 |
| 20260831003327 | 40 | 333 | 4.8 | 9.7 | 0.00 | 0.00 | 0.00 | 28 | 1005.5 |
| 20260831002334 | 40 | 347 | 8.0 | 14.5 | 0.00 | 0.00 | 0.00 | 28 | 1005.5 |
| 20260831001340 | 40 | 334 | 4.8 | 17.7 | 0.00 | 0.00 | 0.00 | 28 | 1005.6 |
| 20260831000348 | 41 | 267 | 6.4 | 14.5 | 0.00 | 0.00 | 0.00 | 28 | 1005.7 |
| 20260830235333 | 41 | 275 | 9.7 | 14.5 | 0.00 | 0.00 | 0.00 | 27 | 1005.8 |
| 20260830234343 | 41 | 336 | 3.2 | 6.4 | 0.00 | 0.00 | 0.00 | 26 | 1005.8 |
| 20260830233331 | 41 | 208 | 0.0 | 12.9 | 0.00 | 0.00 | 0.00 | 27 | 1005.8 |
| 20260830232337 | 41 | 281 | 4.8 | 17.7 | 0.00 | 0.00 | 0.00 | 27 | 1006.1 |
| 20260830231345 | 41 | 250 | 4.8 | 12.9 | 0.00 | 0.00 | 0.00 | 27 | 1006.1 |
| 20260830230335 | 41 | 164 | 4.8 | 14.5 | 0.00 | 0.00 | 0.00 | 27 | 1006.2 |
| 20260830225402 | 41 | 190 | 8.0 | 16.1 | 0.00 | 0.00 | 0.00 | 26 | 1006.5 |
| 20260830224345 | 41 | 225 | 6.4 | 12.9 | 0.00 | 0.00 | 0.00 | 26 | 1006.6 |
| 20260830223333 | 41 | 243 | 6.4 | 11.3 | 0.00 | 0.00 | 0.00 | 26 | 1006.7 |
| 20260830222344 | 41 | 255 | 1.6 | 8.0 | 0.00 | 0.00 | 0.00 | 27 | 1006.8 |
| 20260830221331 | 41 | 261 | 4.8 | 12.9 | 0.00 | 0.00 | 0.00 | 26 | 1007.1 |
| 20260830220336 | 41 | 182 | 4.8 | 9.7 | 0.00 | 0.00 | 0.00 | 27 | 1007.3 |
| 20260830215344 | 41 | 223 | 9.7 | 12.9 | 0.00 | 0.00 | 0.00 | 27 | 1007.6 |
| 20260830214337 | 41 | 9 | 3.2 | 9.7 | 0.00 | 0.00 | 0.00 | 27 | 1007.8 |
| 20260830213343 | 40 | 309 | 3.2 | 9.7 | 0.00 | 0.00 | 0.00 | 28 | 1008.1 |
| 20260830212329 | 40 | 317 | 4.8 | 14.5 | 0.00 | 0.00 | 0.00 | 28 | 1008.2 |
| 20260830211336 | 41 | 267 | 6.4 | 16.1 | 0.00 | 0.00 | 0.00 | 28 | 1008.4 |
| 20260830210327 | 40 | 186 | 1.6 | 8.0 | 0.00 | 0.00 | 0.00 | 28 | 1008.6 |
| 20260830205355 | 40 | 255 | 3.2 | 9.7 | 0.00 | 0.00 | 0.00 | 28 | 1008.7 |
| 20260830204342 | 40 | 325 | 4.8 | 12.9 | 0.00 | 0.00 | 0.00 | 29 | 1009.1 |
| 20260830203330 | 40 | 195 | 3.2 | 9.7 | 0.00 | 0.00 | 0.00 | 29 | 1009.2 |
| 20260830202341 | 39 | 71 | 1.6 | 8.0 | 0.00 | 0.00 | 0.00 | 30 | 1009.4 |
| 20260830201327 | 39 | 67 | 4.8 | 12.9 | 0.00 | 0.00 | 0.00 | 29 | 1009.6 |
| 20260830200336 | 39 | 330 | 4.8 | 12.9 | 0.00 | 0.00 | 0.00 | 29 | 1009.7 |
| 20260830195327 | 39 | 349 | 6.4 | 12.9 | 0.00 | 0.00 | 0.00 | 29 | 1009.8 |
| 20260830194334 | 39 | 150 | 3.2 | 8.0 | 0.00 | 0.00 | 0.00 | 29 | 1009.9 |
| 20260830193341 | 39 | 287 | 1.6 | 4.8 | 0.00 | 0.00 | 0.00 | 30 | 1010.1 |
| 20260830192347 | 38 | 155 | 4.8 | 8.0 | 0.00 | 0.00 | 0.00 | 31 | 1010.3 |
| 20260830191333 | 38 | 298 | 3.2 | 14.5 | 0.00 | 0.00 | 0.00 | 31 | 1010.5 |
| 20260830190406 | 38 | 216 | 6.4 | 14.5 | 0.00 | 0.00 | 0.00 | 31 | 1010.6 |
| 20260830185331 | 38 | 192 | 3.2 | 12.9 | 0.00 | 0.00 | 0.00 | 31 | 1010.8 |
| 20260830184340 | 38 | 186 | 4.8 | 12.9 | 0.00 | 0.00 | 0.00 | 33 | 1010.9 |
| 20260830183347 | 37 | 59 | 4.8 | 12.9 | 0.00 | 0.00 | 0.00 | 32 | 1011.1 |
| 20260830182339 | 37 | 46 | 6.4 | 11.3 | 0.00 | 0.00 | 0.00 | 32 | 1011.2 |
| 20260830181343 | 37 | 208 | 3.2 | 8.0 | 0.00 | 0.00 | 0.00 | 32 | 1011.4 |
| 20260830180329 | 37 | 153 | 3.2 | 12.9 | 0.00 | 0.00 | 0.00 | 33 | 1011.5 |
| 20260830175335 | 37 | 185 | 6.4 | 14.5 | 0.00 | 0.00 | 0.00 | 33 | 1011.6 |
| 20260830174345 | 37 | 175 | 3.2 | 8.0 | 0.00 | 0.00 | 0.00 | 33 | 1011.7 |
| 20260830173333 | 37 | 151 | 9.7 | 17.7 | 0.00 | 0.00 | 0.00 | 34 | 1011.8 |
| 20260830172340 | 36 | 60 | 6.4 | 14.5 | 0.00 | 0.00 | 0.00 | 35 | 1011.8 |
| 20260830171326 | 36 | 134 | 6.4 | 12.9 | 0.00 | 0.00 | 0.00 | 35 | 1011.8 |
| 20260830170337 | 36 | 146 | 4.8 | 17.7 | 0.00 | 0.00 | 0.00 | 36 | 1011.8 |
| 20260830165326 | 36 | 132 | 8.0 | 16.1 | 0.00 | 0.00 | 0.00 | 36 | 1011.8 |
| 20260830164334 | 35 | 70 | 3.2 | 14.5 | 0.00 | 0.00 | 0.00 | 36 | 1011.8 |
| 20260830163341 | 35 | 82 | 4.8 | 12.9 | 0.00 | 0.00 | 0.00 | 36 | 1011.8 |
| 20260830162331 | 35 | 92 | 8.0 | 14.5 | 0.00 | 0.00 | 0.00 | 37 | 1011.9 |
| 20260830161338 | 35 | 73 | 4.8 | 12.9 | 0.00 | 0.00 | 0.00 | 37 | 1011.8 |
| 20260830160345 | 34 | 150 | 6.4 | 14.5 | 0.00 | 0.00 | 0.00 | 37 | 1011.8 |
| 20260830155332 | 33 | 109 | 8.0 | 14.5 | 0.00 | 0.00 | 0.00 | 39 | 1011.8 |
| 20260830154343 | 33 | 162 | 6.4 | 17.7 | 0.00 | 0.00 | 0.00 | 40 | 1011.8 |
| 20260830153331 | 33 | 162 | 9.7 | 17.7 | 0.00 | 0.00 | 0.00 | 40 | 1011.8 |
| 20260830152337 | 33 | 109 | 6.4 | 17.7 | 0.00 | 0.00 | 0.00 | 42 | 1011.8 |
| 20260830151329 | 32 | 95 | 4.8 | 16.1 | 0.00 | 0.00 | 0.00 | 42 | 1011.8 |
| 20260830150356 | 32 | 140 | 6.4 | 17.7 | 0.00 | 0.00 | 0.00 | 43 | 1011.7 |
| 20260830145400 | 32 | 96 | 8.0 | 14.5 | 0.00 | 0.00 | 0.00 | 44 | 1011.8 |
| 20260830144346 | 32 | 100 | 8.0 | 22.5 | 0.00 | 0.00 | 0.00 | 44 | 1011.9 |
| 20260830143332 | 31 | 101 | 8.0 | 16.1 | 0.00 | 0.00 | 0.00 | 44 | 1011.9 |
| 20260830142344 | 31 | 74 | 4.8 | 12.9 | 0.00 | 0.00 | 0.00 | 43 | 1011.8 |
| 20260830141331 | 31 | 133 | 3.2 | 16.1 | 0.00 | 0.00 | 0.00 | 44 | 1011.7 |
| 20260830140335 | 31 | 132 | 6.4 | 19.3 | 0.00 | 0.00 | 0.00 | 44 | 1011.6 |
| 20260830135341 | 31 | 91 | 4.8 | 16.1 | 0.00 | 0.00 | 0.00 | 44 | 1011.5 |
| 20260830134331 | 30 | 116 | 3.2 | 19.3 | 0.00 | 0.00 | 0.00 | 45 | 1011.4 |
| 20260830133355 | 30 | 119 | 4.8 | 17.7 | 0.00 | 0.00 | 0.00 | 46 | 1011.3 |
| 20260830132335 | 30 | 97 | 4.8 | 14.5 | 0.00 | 0.00 | 0.00 | 46 | 1011.1 |
| 20260830131343 | 30 | 78 | 1.6 | 11.3 | 0.00 | 0.00 | 0.00 | 47 | 1011.0 |
| 20260830130329 | 30 | 58 | 4.8 | 9.7 | 0.00 | 0.00 | 0.00 | 47 | 1010.8 |
| 20260830125340 | 30 | 92 | 3.2 | 9.7 | 0.00 | 0.00 | 0.00 | 47 | 1010.7 |
| 20260830124326 | 30 | 65 | 3.2 | 6.4 | 0.00 | 0.00 | 0.00 | 48 | 1010.4 |
| 20260830123332 | 30 | 67 | 0.0 | 3.2 | 0.00 | 0.00 | 0.00 | 48 | 1010.2 |
| 20260830122339 | 31 | 78 | 0.0 | 3.2 | 0.00 | 0.00 | 0.00 | 47 | 1010.0 |
| 20260830121331 | 31 | 58 | 0.0 | 8.0 | 0.00 | 0.00 | 0.00 | 47 | 1010.0 |
| 20260830120337 | 31 | 103 | 4.8 | 12.9 | 0.00 | 0.00 | 0.00 | 47 | 1010.0 |
| 20260830115344 | 31 | 100 | 3.2 | 11.3 | 0.00 | 0.00 | 0.00 | 47 | 1010.0 |
| 20260830114352 | 31 | 74 | 6.4 | 16.1 | 0.00 | 0.00 | 0.00 | 46 | 1010.0 |
| 20260830113342 | 31 | 75 | 6.4 | 14.5 | 0.00 | 0.00 | 0.00 | 45 | 1009.9 |
| 20260830112327 | 31 | 107 | 6.4 | 14.5 | 0.00 | 0.00 | 0.00 | 45 | 1009.8 |
| 20260830111336 | 31 | 169 | 4.8 | 16.1 | 0.00 | 0.00 | 0.00 | 45 | 1009.7 |
| 20260830110341 | 31 | 160 | 1.6 | 14.5 | 0.00 | 0.00 | 0.00 | 45 | 1009.6 |
| 20260830105333 | 31 | 150 | 1.6 | 11.3 | 0.00 | 0.00 | 0.00 | 44 | 1009.7 |
| 20260830104340 | 31 | 140 | 3.2 | 4.8 | 0.00 | 0.00 | 0.00 | 44 | 1009.8 |
| 20260830103328 | 31 | 179 | 3.2 | 8.0 | 0.00 | 0.00 | 0.00 | 44 | 1009.7 |
| 20260830102339 | 31 | 205 | 1.6 | 4.8 | 0.00 | 0.00 | 0.00 | 44 | 1009.6 |
| 20260830101325 | 31 | 173 | 1.6 | 4.8 | 0.00 | 0.00 | 0.00 | 45 | 1009.5 |
| 20260830100334 | 31 | 223 | 0.0 | 3.2 | 0.00 | 0.00 | 0.00 | 45 | 1009.5 |
| 20260830095341 | 31 | 219 | 1.6 | 4.8 | 0.00 | 0.00 | 0.00 | 45 | 1009.5 |
| 20260830094330 | 31 | 251 | 0.0 | 3.2 | 0.00 | 0.00 | 0.00 | 45 | 1009.5 |
| 20260830093337 | 31 | 56 | 0.0 | 1.6 | 0.00 | 0.00 | 0.00 | 45 | 1009.2 |
| 20260830092343 | 31 | 56 | 0.0 | 3.2 | 0.00 | 0.00 | 0.00 | 45 | 1009.2 |
| 20260830091331 | 31 | 56 | 0.0 | 1.6 | 0.00 | 0.00 | 0.00 | 45 | 1009.2 |
| 20260830090342 | 31 | 56 | 0.0 | 1.6 | 0.00 | 0.00 | 0.00 | 45 | 1009.1 |
| 20260830085329 | 31 | 56 | 0.0 | 0.0 | 0.00 | 0.00 | 0.00 | 44 | 1009.2 |
| 20260830084336 | 31 | 56 | 0.0 | 3.2 | 0.00 | 0.00 | 0.00 | 45 | 1009.2 |
| 20260830083342 | 31 | 56 | 0.0 | 4.8 | 0.00 | 0.00 | 0.00 | 45 | 1009.2 |
| 20260830082333 | 31 | 67 | 1.6 | 6.4 | 0.00 | 0.00 | 0.00 | 45 | 1009.4 |
| 20260830081401 | 32 | 71 | 1.6 | 11.3 | 0.00 | 0.00 | 0.00 | 44 | 1009.4 |
| 20260830080326 | 32 | 49 | 6.4 | 9.7 | 0.00 | 0.00 | 0.00 | 43 | 1009.4 |
| 20260830075333 | 32 | 22 | 1.6 | 4.8 | 0.00 | 0.00 | 0.00 | 41 | 1009.3 |
| 20260830074344 | 32 | 75 | 1.6 | 6.4 | 0.00 | 0.00 | 0.00 | 41 | 1009.2 |
| 20260830073330 | 32 | 124 | 6.4 | 12.9 | 0.00 | 0.00 | 0.00 | 41 | 1009.0 |
| 20260830072335 | 32 | 118 | 6.4 | 14.5 | 0.00 | 0.00 | 0.00 | 42 | 1009.1 |
| 20260830071343 | 32 | 109 | 9.7 | 20.9 | 0.00 | 0.00 | 0.00 | 42 | 1009.0 |
| 20260830070355 | 32 | 59 | 8.0 | 22.5 | 0.00 | 0.00 | 0.00 | 43 | 1009.1 |
| 20260830065339 | 32 | 94 | 9.7 | 24.1 | 0.00 | 0.00 | 0.00 | 43 | 1009.2 |
| 20260830064326 | 32 | 129 | 11.3 | 29.0 | 0.00 | 0.00 | 0.00 | 43 | 1009.2 |
| 20260830063334 | 32 | 92 | 14.5 | 27.4 | 0.00 | 0.00 | 0.00 | 42 | 1009.2 |
| 20260830062339 | 33 | 81 | 12.9 | 37.0 | 0.00 | 0.00 | 0.00 | 41 | 1009.3 |
| 20260830061330 | 33 | 88 | 14.5 | 25.7 | 0.00 | 0.00 | 0.00 | 39 | 1009.3 |
| 20260830060337 | 33 | 109 | 14.5 | 29.0 | 0.00 | 0.00 | 0.00 | 38 | 1009.1 |
| 20260830055344 | 34 | 98 | 11.3 | 38.6 | 0.00 | 0.00 | 0.00 | 37 | 1009.1 |
| 20260830054335 | 35 | 142 | 11.3 | 32.2 | 0.00 | 0.00 | 0.00 | 35 | 1008.8 |
| 20260830053341 | 35 | 158 | 19.3 | 38.6 | 0.00 | 0.00 | 0.00 | 36 | 1008.7 |
| 20260830052348 | 36 | 105 | 11.3 | 20.9 | 0.00 | 0.00 | 0.00 | 32 | 1008.7 |
| 20260830051334 | 36 | 124 | 8.0 | 16.1 | 0.00 | 0.00 | 0.00 | 32 | 1008.1 |
| 20260830050340 | 37 | 163 | 11.3 | 24.1 | 0.00 | 0.00 | 0.00 | 32 | 1007.9 |
| 20260830045352 | 37 | 184 | 16.1 | 29.0 | 0.00 | 0.00 | 0.00 | 30 | 1008.0 |
| 20260830044337 | 38 | 158 | 9.7 | 24.1 | 0.00 | 0.00 | 0.00 | 29 | 1007.9 |
| 20260830043343 | 39 | 132 | 11.3 | 32.2 | 0.00 | 0.00 | 0.00 | 26 | 1007.7 |
| 20260830042331 | 40 | 176 | 4.8 | 9.7 | 0.00 | 0.00 | 0.00 | 26 | 1007.4 |
| 20260830041340 | 40 | 211 | 6.4 | 12.9 | 0.00 | 0.00 | 0.00 | 26 | 1007.1 |
| 20260830040327 | 40 | 210 | 4.8 | 14.5 | 0.00 | 0.00 | 0.00 | 25 | 1007.0 |
| 20260830035334 | 40 | 220 | 6.4 | 12.9 | 0.00 | 0.00 | 0.00 | 25 | 1007.0 |
| 20260830034402 | 40 | 221 | 6.4 | 11.3 | 0.00 | 0.00 | 0.00 | 24 | 1006.8 |